www.pogodaiklimat.ru

Погода и климат >> Архив погоды >> Турция >> Акхисар


ПОГОДА в Акхисаре

  • Прогноз погоды в Акхисаре
  • Монитор погоды в Акхисаре

АРХИВ ПОГОДЫ в Акхисаре

Время (UTC), дата Ветер
(напр.,м/с)
 
Видим.   Явления Облачность Т
(С)
Тd
(С)
f
(%)
Тe
(С)
Тes
(С)
Комфортность P
(гПа)
Po
(гПа)
Тmin
(С)
Tmax
(С)
R
(мм)
R24
(мм)
S
(см)
10 15.01 С 3 9000 м слаб. ливневой дождь 9/6 1000 м
[Cu med, cong Ac As]
+5.7 +5.3 97 +3 +4 995.4 984.3
11 15.01 С 5 9000 м слаб. ливневой дождь 9/6 600 м
[Cu med, cong Ac As]
+4.8 +3.5 91 0 +1 995.0 983.9
12 15.01 С 5
{11}
15 км в посл. час ливневой дождь 9/5 1200 м
[Cu med, cong Ac As]
+4.8 +2.8 87 0 +1 995.9 984.8 10
14 15.01 С 6 20 км в посл. час ливневой дождь 9/5 1000 м
[Cu med, cong Ac As]
+3.5 +0.8 82 -2 -2 998.1 986.9
13 15.01 С 7 20 км слаб. ливневой дождь 9/5 1000 м
[Cu med, cong Ac As]
+3.9 +1.2 83 -2 -2 997.0 985.8
15 15.01 С 5-10
{15}
20 км {ливн. осадки} 9/5 1200 м
[Cu med, cong Ac As]
+3.2 +0.2 81 -2 -2 999.6 988.4
16 15.01 С 4 20 км 9/5 1000 м
[Cu med, cong Ac As]
+2.9 +0.2 82 -2 -2 1002.0 990.8
17 15.01 С 4 20 км 8/5 1000 м
[Cu med, cong Ac As]
+3.0 -0.1 80 -1 -1 1004.3 993.0
18 15.01 СЗ 2
{15}
20 км {ливн. осадки} 9/6 1200 м
[Cu med, cong Ac cuf]
+2.6 +0.1 84 -1 -1 1006.2 994.9 +6.3 10
20 15.01 С 2 20 км 9/5 1000 м
[Cu med, cong Ac As]
+2.4 -0.3 82 -1 -1 1009.1 997.8
19 15.01 С 2 20 км в посл. час ливневой дождь 9/5 1000 м
[Cu med, cong Ac cuf]
+2.7 -0.2 81 0 0 1007.9 996.6
21 15.01 С 3
{7}
20 км {ливн. осадки} 4/0
[Ac trans]
+2.2 -1.9 74 -2 -2 1009.5 998.2
22 15.01 С 4 20 км 4/4 1000 м
[Cu med, cong]
+1.8 -2.6 73 -3 -3 1010.1 998.7
23 15.01 С 4 20 км 5/5 1000 м
[Cu med, cong]
+1.6 -2.5 74 -3 -3 1010.0 998.6
00 16.01 С 4
{10}
20 км {ливн. осадки} 8/5 1200 м
[Cu med, cong Ac und]
+1.4 -3.0 72 -3 -3 1011.0 999.6 0.0
02 16.01 С 4 20 км 8/5 1000 м
[Cu med, cong Ac und]
+1.5 -3.9 67 -3 -3 1012.3 1000.9
01 16.01 С 4 20 км 8/5 1000 м
[Cu med, cong Ac und]
+1.4 -3.6 69 -3 -3 1011.7 1000.3
03 16.01 С 5
{10}
20 км 8/5 1200 м
[Cu med, cong Ac und]
+1.4 -4.6 64 -4 -4 1012.3 1000.9
04 16.01 С 3 20 км 9/5 1000 м
[Cu med, cong Ac und]
+1.2 -4.6 65 -3 -3 1013.2 1001.7
05 16.01 С 3 20 км 8/4 1000 м
[Cu med, cong Ac und]
+0.9 -5.1 64 -3 -3 1014.1 1002.6
06 16.01 С 2
{10}
20 км 4/4 1200 м
[Cu med, cong]
+0.7 -5.3 64 -2 -2 1015.1 1003.6 +0.7 0.0
08 16.01 С 3 20 км 4/4 1000 м
[Cu hum]
+2.9 -4.7 57 -1 +1 1016.9 1005.4
07 16.01 С 3 20 км 4/4 1000 м
[Cu med, cong]
+1.6 -5.3 60 -2 -1 1015.8 1004.3
09 16.01 С 3
{8}
20 км 4/4 1050 м
[Cu hum]
+2.9 -4.7 57 -1 +2 1017.6 1006.1
10 16.01 С 3 20 км 6/4 600 м
[Cu hum Ci fib]
+4.4 -4.3 53 +1 +4 1017.6 1006.1
11 16.01 С 2 20 км 4/3 600 м
[Cu hum Ci fib]
+5.2 -4.6 49 +3 +7 1017.4 1005.9
12 16.01 С 2
{10}
20 км 1/1 1350 м
[Cu hum]
+5.2 -4.6 49 +3 +7 1017.3 1005.8
14 16.01 СВ 1 20 км 1/1 1000 м
[Cu hum]
+5.0 -5.4 47 +4 +5 1017.2 1005.7
13 16.01 СВ 1 20 км 3/3 1000 м
[Cu hum]
+5.1 -5.0 48 +4 +6 1017.2 1005.7
15 16.01 С 1
{4}
20 км 5/0
[Ac lent Ci fib]
+4.7 -4.3 52 +5 +5 1018.0 1006.5
16 16.01 ЮВ 1 12 км 5/0
[Ac lent Ci fib]
+3.8 -3.0 61 +4 +4 1018.6 1007.1
17 16.01 ЮВ 1 12 км 5/0
[Ac lent Ci fib]
+2.3 -2.5 71 +2 +2 1019.5 1007.9
18 16.01 штиль 0
{4}
17 км 5/0
[Ac lent Ci fib]
+2.5 -1.8 73 +2 +2 1019.9 1008.3 +5.8
20 16.01 штиль 0 10 км 3/0
[Ci fib]
+0.7 -1.3 86 -0 -0 1021.1 1009.5
19 16.01 СЗ 1 12 км 5/3 1000 м
[Cu hum Ac lent]
+1.8 -0.9 82 +1 +1 1020.7 1009.1
21 16.01 штиль 0
{1}
8000 м дымка ясно -0.2 -1.5 91 -1 -1 1021.5 1009.9
22 16.01 С 1 7000 м дымка ясно -0.3 -1.4 92 -1 -1 1021.7 1010.1
23 16.01 З 1 8000 м дымка ясно -1.1 -2.1 93 -2 -2 1021.9 1010.3
00 17.01 штиль 0
{1}
11 км ясно -1.6 -2.6 93 -3 -3 1022.0 1010.4
02 17.01 штиль 0 14 км ясно -1.8 -2.3 96 -3 -3 1022.5 1010.9
01 17.01 штиль 0 14 км ясно -1.7 -2.4 95 -3 -3 1022.4 1010.8
03 17.01 штиль 0 13 км ясно -1.4 -2.2 94 -3 -3 1022.4 1010.8
04 17.01 штиль 0 10 км ясно -1.3 -2.0 95 -3 -3 1022.7 1011.1
05 17.01 ЮВ 1 8000 м дымка 4/3 1000 м
[Cu hum Ac lent]
-1.4 -1.9 96 -2 -2 1022.8 1011.2
06 17.01 штиль 0
{1}
9000 м дымка 6/0
[Ac trans Ci fib]
-1.1 -2.1 93 -2 -2 1023.5 1011.9 -1.9
08 17.01 СЗ 1 7000 м дымка 4/4 1000 м
[Sc]
+2.5 -0.9 78 +2 +5 1024.2 1012.6
07 17.01 штиль 0 6000 м дымка 5/5 1000 м
[Sc]
0.0 -1.4 90 -1 0 1023.8 1012.2
09 17.01 З 1
{2}
15 км 3/3 1050 м
[Sc]
+5.0 -1.4 63 +5 +10 1024.4 1012.8
10 17.01 З 1 20 км 3/0
[Ci fib]
+6.6 -1.5 56 +7 +14 1023.5 1012.0
11 17.01 В 1 20 км 3/0
[Ci fib]
+7.4 -0.5 57 +8 +14 1022.6 1011.1
12 17.01 З 1
{2}
20 км 3/0
[Ci fib]
+8.1 -0.3 55 +8 +12 1022.0 1010.5
14 17.01 З 1 20 км 4/4 1000 м
[Cu hum]
+9.0 +0.9 57 +10 +10 1021.7 1010.2
13 17.01 Ю 1 20 км 3/3 1000 м
[Cu hum]
+8.4 +0.1 56 +9 +11 1021.7 1010.2
15 17.01 СЗ 1
{2}
20 км 3/3 1200 м
[Cu hum]
+8.2 +2.2 66 +9 +9 1021.9 1010.4
16 17.01 Ю 1 10 км ясно +5.6 +2.0 78 +6 +6 1022.1 1010.5
17 17.01 СВ 1 6000 м дымка ясно +4.7 +2.0 83 +5 +5 1022.4 1010.8
18 17.01 СЗ 1
{2}
4000 м дымка ясно +3.6 +1.7 87 +3 +3 1022.5 1010.9 +9.2
20 17.01 штиль 0 3000 м дымка ясно +1.5 +0.6 94 0 0 1022.9 1011.3
19 17.01 штиль 0 3000 м дымка ясно +2.1 +0.9 92 +1 +1 1022.7 1011.1
21 17.01 СЗ 1
{2}
4000 м дымка ясно +3.6 +1.7 87 +3 +3 1022.5 1010.9 +9.2
22 17.01 С 1 4000 м дымка ясно +0.2 -0.2 97 -1 -1 1022.9 1011.4
23 17.01 штиль 0 4000 м дымка ясно 0.0 -0.2 99 -1 -1 1022.5 1011.0
00 18.01 штиль 0
{1}
5000 м дымка ясно -0.7 -0.9 99 -2 -2 1022.4 1010.9
02 18.01 С 1 5000 м дымка ясно -1.0 -1.1 99 -2 -2 1021.8 1010.3
01 18.01 штиль 0 5000 м дымка ясно -0.6 -0.7 99 -2 -2 1022.3 1010.8
03 18.01 штиль 0
{1}
5000 м дымка ясно -1.3 -1.4 99 -3 -3 1021.5 1010.0
04 18.01 штиль 0 5000 м дымка ясно -1.5 -1.6 99 -3 -3 1021.4 1009.8
05 18.01 штиль 0 6000 м дымка ясно -1.5 -1.6 99 -3 -3 1021.8 1010.2
06 18.01 штиль 0
{1}
5000 м дымка ясно -1.3 -1.4 99 -3 -2 1021.9 1010.3 -1.5
08 18.01 штиль 0 20 км 3/3 1000 м
[Cu hum]
+4.1 +0.7 78 +3 +7 1022.2 1010.7
07 18.01 СЗ 1 10 км ясно +0.8 0.0 94 0 +2 1022.2 1010.6
09 18.01 СЗ 1
{1}
10 км 5/0
[Ac trans]
+5.4 +0.7 72 +6 +10 1022.4 1010.9
10 18.01 Ю 1 10 км 4/0
[Ac trans]
+8.0 +1.4 63 +9 +14 1021.7 1010.2
11 18.01 Ю 1 15 км 5/1 1000 м
[Cu hum Ac trans]
+9.0 +1.4 59 +10 +14 1020.6 1009.2
12 18.01 Ю 1
{1}
15 км 5/3 1350 м
[Cu hum Ac trans]
+10.5 +2.3 57 +11 +14 1020.2 1008.8
14 18.01 штиль 0 20 км 8/4 1000 м
[Cu med, cong Ac und]
+11.0 +3.5 60 +11 +11 1020.3 1008.9
13 18.01 Ю 1 17 км 8/5 1000 м
[Cu med, cong Ac und]
+10.4 +3.0 60 +11 +12 1020.2 1008.8
15 18.01 СЗ 1
{2}
15 км 9/4 1050 м
[Cu med, cong Ac und]
+9.9 +4.3 68 +11 +11 1020.2 1008.8
16 18.01 СЗ 1 4000 м дымка 8/4 1000 м
[Cu med, cong Ac und]
+8.1 +3.9 75 +8 +8 1020.3 1008.8
17 18.01 СВ 1 3000 м дымка 9/5 1000 м
[Cu med, cong Ac und]
+7.5 +4.2 80 +8 +8 1020.4 1008.9
18 18.01 СВ 1
{2}
2500 м дымка 8/5 1200 м
[Cu med, cong Ac und]
+7.4 +4.5 82 +8 +8 1020.5 1009.0 +11.0
20 18.01 штиль 0 2000 м дымка 8/5 1000 м
[Cu med, cong Ac und]
+4.7 +3.4 91 +4 +4 1020.6 1009.2
19 18.01 штиль 0 2000 м дымка 8/5 1000 м
[Cu med, cong Ac und]
+5.8 +4.2 89 +5 +5 1020.5 1009.0
21 18.01 штиль 0
{1}
3000 м дымка 5/5 1050 м
[Sc diur, vesp]
+4.9 +3.6 91 +4 +4 1020.8 1009.4
22 18.01 СЗ 1 2500 м дымка 4/4 1000 м
[Sc]
+4.3 +3.3 93 +4 +4 1020.9 1009.5
23 18.01 Ю 1 2000 м дымка 4/4 1000 м
[Sc]
+3.2 +2.6 96 +3 +3 1020.7 1009.3
00 19.01 С 1
{1}
2200 м дымка 4/4 1050 м
[Sc]
+3.1 +2.8 98 +3 +3 1020.7 1009.4
02 19.01 З 1 3500 м дымка 8/8 1000 м
[Sc]
+3.7 +3.5 99 +3 +3 1020.5 1009.2
01 19.01 штиль 0 3000 м дымка 5/5 1000 м
[Sc]
+2.0 +1.7 98 +1 +1 1020.8 1009.4
03 19.01 штиль 0
{1}
3500 м дымка 8/8 1050 м
[Sc]
+3.7 +3.4 98 +2 +2 1020.2 1008.9
04 19.01 штиль 0 4000 м слаб. дождь 9/9 1000 м
[Sc]
+3.8 +3.3 97 +3 +3 1020.6 1009.2
05 19.01 штиль 0 4000 м в посл. час дождь 9/9 1000 м
[Sc]
+4.6 +4.4 99 +3 +3 1020.5 1009.1
06 19.01 штиль 0
{2}
2000 м дымка {дождь} 9/8 1050 м
[Sc Ac und]
+4.8 +4.6 99 +4 +4 1020.9 1009.5 +1.9 0.0
08 19.01 СВ 1 1300 м слаб. дождь 9/8 300 м
[Sc Ac As]
+6.5 +6.0 97 +6 +7 1021.5 1010.1
07 19.01 СЗ 1 3700 м дымка 8/6 1000 м
[Sc Ac und]
+5.4 +4.9 97 +5 +6 1021.2 1009.8
09 19.01 штиль 0
{1}
1400 м слаб. дождь 10/10 240 м
[Sc]
+7.2 +6.8 97 +6 +6 1022.0 1010.6
10 19.01 штиль 0 6000 м в посл. час дождь 10/10 300 м
[Sc]
+9.1 +6.1 81 +8 +8 1021.6 1010.2
11 19.01 штиль 0 5000 м дымка 9/8 300 м
[Sc Ac und]
+9.7 +6.6 81 +9 +10 1021.0 1009.6
12 19.01 штиль 0
{1}
7000 м дымка {дождь} 9/8 360 м
[Sc Ac und]
+10.6 +7.1 79 +10 +11 1020.4 1009.1 0.3
14 19.01 штиль 0 11 км 9/6 600 м
[Sc Ac und]
+11.1 +7.2 77 +11 +11 1020.0 1008.7
13 19.01 штиль 0 8000 м дымка 9/6 600 м
[Sc Ac und]
+11.3 +7.4 77 +11 +11 1020.3 1008.9
15 19.01 штиль 0
{1}
9000 м дымка 9/5 900 м
[Sc Ac As]
+10.4 +7.9 84 +10 +10 1020.0 1008.7
16 19.01 штиль 0 5000 м дымка 9/5 600 м
[Sc Ac As]
+9.5 +7.9 90 +9 +9 1020.0 1008.7
17 19.01 штиль 0 6000 м дымка 9/5 600 м
[Sc Ac As]
+8.8 +7.7 93 +8 +8 1020.2 1008.9
18 19.01 Ю 1
{1}
2700 м дымка 9/5 900 м
[Sc Ac As]
+8.2 +7.7 97 +8 +8 1020.7 1009.3 +11.5 0.5
20 19.01 С 1 2000 м дымка 8/5 1000 м
[Cu med, cong Ac und]
+6.9 +6.7 99 +7 +7 1021.0 1009.6
19 19.01 штиль 0 4000 м дымка 8/5 1000 м
[Sc Ac und]
+7.6 +7.2 97 +7 +7 1020.8 1009.4
21 19.01 штиль 0 2000 м дымка 5/5 1200 м
[Cu med, cong]
+6.4 +6.2 99 +5 +5 1021.0 1009.6
22 19.01 С 1 2000 м дымка 4/4 1000 м
[Cu med, cong]
+5.7 +5.5 99 +5 +5 1021.0 1009.7
23 19.01 штиль 0 2000 м дымка 8/4 1000 м
[Cu med, cong Ac und]
+4.9 +4.7 99 +4 +4 1020.7 1009.4
00 20.01 штиль 0 3000 м дымка 8/5 1200 м
[Cu med, cong Ac und]
+5.2 +5.1 99 +4 +4 1020.3 1009.0
02 20.01 штиль 0 5000 м дымка 9/4 1000 м
[Cu med, cong Ac und]
+3.8 +3.7 99 +3 +3 1020.3 1009.0
01 20.01 штиль 0 4000 м дымка 9/5 1000 м
[Cu med, cong Ac und]
+3.9 +3.7 99 +3 +3 1020.6 1009.3
03 20.01 штиль 0
{1}
5000 м дымка 9/5 1200 м
[Cu med, cong Ac As]
+4.4 +4.4 100 +3 +3 1020.2 1008.9
04 20.01 СЗ 1 5000 м слаб. ливневой дождь 9/6 1000 м
[Cu med, cong Ac As]
+4.7 +4.6 99 +4 +4 1020.2 1008.9
05 20.01 штиль 0 6000 м слаб. ливневой дождь 9/6 1000 м
[Cu med, cong Ac As]
+4.8 +4.8 100 +4 +4 1020.1 1008.8
06 20.01 СВ 1 4000 м слаб. ливневой дождь 9/6 1050 м
[Cu med, cong Ac As]
+5.5 +5.5 100 +5 +5 1020.4 1009.1 +3.6 0.1
08 20.01 СЗ 1 2500 м в посл. час ливневой дождь 8/5 1000 м
[Cu med, cong Ac As]
+7.9 +7.9 100 +8 +9 1020.6 1009.3
07 20.01 штиль 0 2500 м слаб. ливневой дождь 9/6 600 м
[Cu med, cong Ac As]
+6.3 +6.3 100 +5 +6 1020.5 1009.2
09 20.01 СЗ 1
{1}
8000 м дымка {ливн. осадки} 6/5 1200 м
[Cu med, cong Ac und]
+10.8 +8.4 85 +11 +14 1020.3 1009.0
10 20.01 ЮВ 1 20 км 8/5 1000 м
[Cu med, cong Ac As]
+11.5 +8.1 80 +12 +14 1019.6 1008.3
11 20.01 ЮВ 1 20 км 8/5 1000 м
[Cu med, cong Ac trans]
+13.5 +8.6 72 +15 +17 1018.6 1007.4
12 20.01 ЮВ 2
{4}
20 км {ливн. осадки} 6/5 1200 м
[Cu med, cong Ac und]
+14.1 +7.4 64 +14 +16 1017.8 1006.6 0.6
14 20.01 Ю 1 20 км 8/5 1000 м
[Cu med, cong Ac As]
+14.0 +6.6 61 +14 +15 1017.1 1005.9
13 20.01 Ю 2 20 км 8/5 1000 м
[Cu med, cong Ac und]
+14.5 +7.3 62 +15 +15 1017.3 1006.1
15 20.01 ЮВ 1
{6}
20 км 6/4 1200 м
[Cu med, cong Ac und]
+13.7 +7.5 66 +15 +15 1017.0 1005.8
16 20.01 ЮВ 1 20 км 8/5 1000 м
[Cu med, cong Ac und]
+12.0 +7.3 73 +12 +12 1016.9 1005.7
17 20.01 ЮВ 1 20 км 6/5 1000 м
[Cu med, cong Ac und]
+10.8 +7.3 79 +11 +11 1017.2 1005.9
18 20.01 В 1
{6}
14 км 8/5 1200 м
[Cu med, cong Ac As]
+11.2 +6.5 73 +12 +12 1017.3 1006.1 +15.0 0.6
20 20.01 ЮВ 1 15 км слаб. ливневой дождь 8/6 600 м
[Cu med, cong Ac As]
+10.4 +7.2 81 +10 +10 1017.9 1006.7
19 20.01 ЮВ 1 20 км 8/5 1000 м
[Cu med, cong Ac As]
+9.8 +6.7 81 +9 +9 1017.8 1006.5
21 20.01 СВ 1
{4}
10 км в посл. час ливневой дождь 8/5 1200 м
[Cu med, cong Ac As]
+8.9 +7.8 93 +9 +9 1018.0 1006.8
22 20.01 штиль 0 5000 м слаб. ливневой дождь 8/5 1000 м
[Cu med, cong Ac As]
+8.8 +8.1 95 +8 +8 1017.8 1006.6
23 20.01 З 1 3300 м в посл. час ливневой дождь 9/6 1000 м
[Cu med, cong Ac As]
+8.2 +8.0 99 +8 +8 1017.3 1006.2
00 21.01 СВ 1
{4}
4000 м дымка {ливн. осадки} 9/6 1200 м
[Cu med, cong Ac As]
+7.9 +7.7 99 +8 +8 1017.1 1006.0 0.2
02 21.01 В 1 5000 м слаб. ливневой дождь 9/6 600 м
[Cu med, cong Ac As]
+8.2 +8.1 99 +8 +8 1016.7 1005.6
01 21.01 С 1 3500 м слаб. ливневой дождь 9/6 600 м
[Cu med, cong Ac As]
+8.1 +8.1 100 +8 +8 1017.1 1006.0
03 21.01 штиль 0
{1}
2700 м слаб. ливневой дождь 9/6 900 м
[Cu med, cong Ac As]
+8.1 +8.1 100 +7 +7 1016.3 1005.2
04 21.01 штиль 0 3000 м слаб. ливневой дождь 9/6 600 м
[Cu med, cong Ac As]
+7.8 +7.8 100 +7 +7 1016.2 1005.0
05 21.01 штиль 0 1200 м слаб. ливневой дождь 9/6 600 м
[Cu med, cong Ac As]
+7.7 +7.6 99 +7 +7 1016.0 1004.8
06 21.01 штиль 0 2200 м слаб. ливневой дождь 9/6 960 м
[Cu med, cong Ac As]
+7.7 +7.5 99 +7 +7 1016.0 1004.8 +7.7 2
08 21.01 СЗ 1 5000 м в посл. час ливневой дождь 9/5 1000 м
[Cu med, cong Ac As]
+8.4 +8.3 99 +8 +9 1016.4 1005.2
07 21.01 штиль 0 3000 м слаб. ливневой дождь 9/5 600 м
[Cu med, cong Ac As]
+8.1 +8.1 100 +7 +8 1016.2 1005.0
09 21.01 штиль 0
{1}
8000 м дымка {ливн. осадки} 9/5 1050 м
[Cu med, cong Ac und]
+9.1 +9.1 100 +8 +10 1016.5 1005.3
10 21.01 СЗ 1 15 км 9/5 1000 м
[Cu med, cong Ac und]
+10.9 +9.9 94 +11 +13 1016.1 1004.9
11 21.01 штиль 0 15 км 9/5 1000 м
[Cu med, cong Ac und]
+12.0 +8.1 77 +12 +13 1015.5 1004.3
12 21.01 Ю 1
{1}
20 км {ливн. осадки} 9/5 1050 м
[Cu med, cong Ac und]
+12.5 +7.6 72 +13 +15 1015.1 1004.0 0.1
14 21.01 Ю 1 20 км 9/5 1000 м
[Cu med, cong Ac und]
+11.5 +8.3 81 +12 +12 1015.6 1004.4
13 21.01 Ю 1 11 км 9/5 1000 м
[Cu med, cong Ac und]
+12.4 +7.9 74 +13 +14 1015.3 1004.2
15 21.01 ЮВ 1
{2}
10 км слаб. ливневой дождь 9/6 900 м
[Cu med, cong Ac und]
+10.6 +8.6 87 +10 +10 1016.0 1004.8
16 21.01 ЮВ 1 15 км в посл. час ливневой дождь 9/6 1000 м
[Cu hum Ac lent]
+10.0 +9.3 95 +10 +10 1016.5 1005.3
17 21.01 штиль 0 10 км 8/8 1000 м
[Sc diur, vesp]
+9.8 +9.4 97 +9 +9 1017.1 1005.9
18 21.01 штиль 0
{2}
2600 м дымка {ливн. осадки} 9/9 450 м
[Sc diur, vesp]
+9.8 +9.6 99 +9 +9 1017.1 1005.9 +13.4 0.2
20 21.01 штиль 0 2000 м дымка 9/9 300 м
[Sc]
+9.2 +9.1 99 +8 +8 1017.5 1006.3
19 21.01 штиль 0 2500 м дымка 8/8 300 м
[Sc]
+9.5 +9.5 100 +9 +9 1017.3 1006.1
21 21.01 СЗ 1
{1}
6000 м дымка 6/6 450 м
[Sc]
+8.9 +8.7 99 +9 +9 1017.9 1006.7
22 21.01 С 1 8000 м дымка 6/6 600 м
[Sc]
+8.6 +6.8 88 +9 +9 1018.1 1006.9
23 21.01 СЗ 1 8000 м дымка 6/6 600 м
[Sc]
+7.9 +6.1 88 +7 +7 1018.1 1006.9
00 22.01 С 1
{3}
8000 м дымка 6/6 600 м
[Sc]
+7.4 +5.8 90 +6 +6 1018.0 1006.8
02 22.01 С 1 9000 м дымка 6/6 600 м
[Sc]
+6.9 +5.5 91 +6 +6 1017.7 1006.5
01 22.01 С 1 7000 м дымка 6/6 600 м
[Sc]
+7.1 +5.7 91 +7 +7 1018.1 1006.9
03 22.01 З 1
{3}
8000 м дымка 6/6 600 м
[Sc]
+6.3 +5.2 93 +6 +6 1017.9 1006.7
04 22.01 С 1 8000 м дымка 6/6 600 м
[Sc]
+6.8 +5.4 91 +7 +7 1017.9 1006.6
05 22.01 С 1 8000 м дымка 6/6 600 м
[Sc]
+6.6 +5.0 90 +5 +5 1017.9 1006.6
06 22.01 штиль 0
{3}
8000 м дымка 5/5 1050 м
[Sc]
+6.2 +5.2 93 +5 +5 1017.8 1006.5 +5.9
08 22.01 С 1 13 км 9/5 1000 м
[Cu med, cong Ac As]
+8.8 +5.5 80 +8 +9 1018.1 1006.9
07 22.01 СЗ 1 7000 м дымка 9/6 1000 м
[Cu med, cong Ac As]
+7.4 +5.5 88 +7 +8 1018.1 1006.8
09 22.01 С 1
{2}
20 км 9/6 1200 м
[Cu med, cong Ac As]
+10.1 +5.9 75 +11 +12 1018.1 1006.9

 

Местоположение метеостанции Акхисар (Турция): широта 38.92 долгота 27.85 высота над уровнем моря 93 м.

В архиве по умолчанию представлена погода в Акхисаре за последнюю неделю. Архивные данные за месяц целиком и за предыдущие месяцы, начиная с января 2011 года, Вы можете получить, выбрав интересующий диапазон дат из раскрывающегося списка и нажав кнопку "Ввод!".


*Определитесь, кто Вы:
робот инопланетянин человек

Внимание! Время в таблицах - всемирное. Для получения местного времени необходимо прибавить поправку, которая равна 2 ч.

Смотрите также архив погоды в соседних городах и на ближайших метеорологических станциях:

Погода в Манисе (Турция) (49 км)
Погода в Балыкесире (Турция) (78 км)
Погода в Измире (Турция) (80 км)
Погода в Измир / Сигли (Турция) (86 км)
Погода в Дикили (Турция) (86 км)
Погода в Измир аэропорту (Турция) (94 км)
Погода в Айвалыке (Турция) (108 км)
Погода в Митилини (Греция) (109 км)
Погода в Айдыне (Турция) (119 км)
Погода в Кушадасы (Турция) (128 км)

Пояснения к столбцам:

Ветер - указаны скорость ветра в м/с - средняя за 10 мин, порывы в срок и между сроками (в фигурных скобках) и направление, откуда дует ветер: С - северный, СВ - северо-восточный, В - восточный, ЮВ - юго-восточный, Ю - южный, ЮЗ - юго-западный, З - западный, СЗ - северо-западный.
Видимость - горизонтальная дальность видимости в метрах или километрах. При видимости от 1 до 10 км при отсутствии осадков обычно наблюдается дымка, при ухудшении видимости до 1 км и менее - туман. В сухую погоду видимость может ухудшаться дымом, пылью или мглою.
Явления - указаны атмосферные явления, наблюдавшиеся в срок или в последний час перед сроком; фигурными скобками обозначены явления, наблюдавшиеся между сроками (за 1-3 часа до срока); квадратными скобками обозначены град или гололедные отложения с указанием их диаметра в мм.
Облачность - указаны через наклонную черту общая и нижняя облачность в баллах и высота нижней границы облаков в метрах; квадратными скобками обозначены формы облаков: Ci - перистые, Cs - перисто-слоистые, Cc - перисто-кучевые, Ac - высококучевые, As - высокослоистые, Sc - слоисто-кучевые, Ns - слоисто-дождевые, Cu - кучевые, Cb - кучево-дождевые. Подробнее классификацию облаков см. в Атласе облаков (PDF).
T - Температура воздуха - температура, измеренная на высоте 2 м над землей.
Td - Температура точки росы - температура, при понижении до которой содержащийся в воздухе водяной пар достигнет насыщения.
f - Относительная влажность воздуха - влажноcть воздуха, измеренная на высоте 2 м над землей.
Te - Эффективная температура - температура, которую ощущает одетый по сезону человек в тени. Характеристика душности погоды. При расчете учитывается влияние влажности воздуха и скорости ветра на теплоощущения человека.
Tes - Эффективная температура на солнце - температура, которую ощущает человек, с поправкой на солнечный нагрев. Характеристика знойности погоды. Зависит от высоты солнца над горизонтом, облачности и скорости ветра. Ночью, в пасмурную погоду, а также при ветре 12 м/с и более поправка равна нулю.
P - Атмосферное давление - приведенное к уровню моря атмосферное давление.
Po - Атмосферное давление - измеренное на уровне метеостанции атмосферное давление.
Tmin - Минимальная температура - минимум температуры воздуха на высоте 2 м над землей.
Tmax - Максимальная температура - максимум температуры воздуха на высоте 2 м над землей.
R - Количество осадков - Количество выпавших осадков за период времени, мм. При наведении курсора мыши на число - период времени, за который выпало указанное количество осадков.
R24 - Количество осадков - Количество выпавших осадков за 24 часа, мм.
S - Снежный покров - Высота снежного покрова, см. При наведении курсора мыши на число - состояние снежного покрова и степень покрытия местности в баллах.